User: anonymous   Login
Location: Robert Brownlee Observatory
(34.2308°N, 117.2089°W)
Time: 00:06:21
(UTC-07:00)
Language:

Cosmos 1943 - Orbit

View from above orbital plane
View from above orbital plane
View from above satellite
View from above satellite

Ground track
Ground track

The orbit data is extracted from the following two-line orbital elements,

1 19119U 88039A   17174.95536262 +.00000246 +00000-0 +15155-3 0  9999
2 19119 071.0038 087.5709 0010100 040.2031 032.4193 14.15090906502789
Epoch (UTC): 23 June 2017 22:55:43
Eccentricity: 0.0010100
inclination: 71.0038°
perigee height: 835 km
apogee height: 849 km
right ascension of ascending node: 87.5709°
argument of perigee: 40.2031°
revolutions per day: 14.15090906
mean anomaly at epoch: 32.4193°
orbit number at epoch: 50278

The dashed part of the orbit path shows where the satellite is in the earth's shadow,  

DLR